When you browse on this site, cookies collect data to enhance your experience and personalize the content and advertising you see.
Visit our Privacy Policy to learn more. By continuing to use the site, you agree to this use of cookies and data.
  • En España
  • Lista de países
  • Para 7 días
  • Temperatura del agua
  • El tiempo en el mapa
  • Informadores
  • user-avatar
    Iniciar sesión

    Tiempo cada hora Shusha

    Hoy, 4 Junio, Jueves

    Tiempo Temperatura Precipitaciones Viento Presión Humedad
    00:00 +17°C° 0 mm 2 mps 656 mmHg 64%
    01:00 +17°C° 0 mm 2 mps 656 mmHg 63%
    02:00 +16°C° 0 mm 1 mps 656 mmHg 63%
    03:00 +16°C° 0 mm 1 mps 656 mmHg 60%
    04:00 +18°C° 0 mm 1 mps 656 mmHg 61%
    05:00 +19°C° 0 mm 1 mps 657 mmHg 62%
    06:00 +20°C° 0 mm 1 mps 658 mmHg 63%
    07:00 +21°C° 0 mm 1 mps 658 mmHg 59%
    08:00 +21°C° 0 mm 2 mps 658 mmHg 56%
    09:00 +23°C° 0 mm 2 mps 659 mmHg 51%
    10:00 +24°C° 0 mm 3 mps 659 mmHg 49%
    11:00 +25°C° 0 mm 3 mps 659 mmHg 48%
    12:00 +25°C° 0 mm 3 mps 659 mmHg 47%
    13:00 +25°C° 0 mm 3 mps 659 mmHg 48%
    14:00 +26°C° 0 mm 3 mps 658 mmHg 50%
    15:00 +26°C° 0 mm 3 mps 658 mmHg 51%
    16:00 +24°C° 0 mm 3 mps 658 mmHg 56%
    17:00 +23°C° 0 mm 2 mps 658 mmHg 62%
    18:00 +21°C° 0 mm 2 mps 658 mmHg 67%
    19:00 +20°C° 0 mm 1 mps 658 mmHg 72%
    20:00 +19°C° 0 mm 1 mps 658 mmHg 77%
    21:00 +16°C° 0 mm 1 mps 658 mmHg 83%
    22:00 +16°C° 0 mm 1 mps 658 mmHg 82%
    23:00 +16°C° 0 mm 1 mps 658 mmHg 81%

    Mañana, 5 Junio, Viernes

    Tiempo Temperatura Precipitaciones Viento Presión Humedad
    00:00 +15°C° 0 mm 1 mps 659 mmHg 81%
    01:00 +15°C° 0 mm 1 mps 659 mmHg 79%
    02:00 +15°C° 0 mm 1 mps 659 mmHg 77%
    03:00 +15°C° 0 mm 1 mps 659 mmHg 75%
    04:00 +15°C° 0 mm 1 mps 659 mmHg 74%
    05:00 +16°C° 0 mm 1 mps 660 mmHg 72%
    06:00 +18°C° 0 mm 1 mps 661 mmHg 71%
    07:00 +19°C° 0 mm 1 mps 661 mmHg 68%
    08:00 +20°C° 0 mm 2 mps 661 mmHg 64%
    09:00 +21°C° 0 mm 2 mps 662 mmHg 60%
    10:00 +23°C° 0.3 mm 2 mps 662 mmHg 58%
    11:00 +24°C° 0.3 mm 2 mps 661 mmHg 56%
    12:00 +25°C° 0.3 mm 2 mps 661 mmHg 54%
    13:00 +25°C° 0.4 mm 2 mps 661 mmHg 52%
    14:00 +25°C° 0.4 mm 3 mps 661 mmHg 50%
    15:00 +26°C° 0.4 mm 3 mps 661 mmHg 48%
    16:00 +25°C° 0.3 mm 2 mps 661 mmHg 52%
    17:00 +24°C° 0.3 mm 2 mps 661 mmHg 56%
    18:00 +23°C° 0.3 mm 2 mps 661 mmHg 59%
    19:00 +21°C° 0.2 mm 1 mps 661 mmHg 64%
    20:00 +19°C° 0.2 mm 1 mps 661 mmHg 69%
    21:00 +16°C° 0.2 mm 1 mps 661 mmHg 73%
    22:00 +16°C° 0.6 mm 1 mps 661 mmHg 76%
    23:00 +15°C° 0.6 mm 1 mps 662 mmHg 79%

    Pasado mañana, 6 Junio, Sábado

    Tiempo Temperatura Precipitaciones Viento Presión Humedad
    00:00 +15°C° 0.6 mm 1 mps 662 mmHg 82%
    01:00 +15°C° 0.3 mm 1 mps 662 mmHg 82%
    02:00 +14°C° 0.3 mm 1 mps 662 mmHg 82%
    03:00 +14°C° 0.3 mm 1 mps 662 mmHg 82%
    04:00 +15°C° 0.5 mm 1 mps 662 mmHg 80%
    05:00 +15°C° 0.5 mm 1 mps 662 mmHg 78%
    06:00 +16°C° 0.5 mm 1 mps 663 mmHg 76%
    07:00 +18°C° 0.5 mm 1 mps 663 mmHg 72%
    08:00 +18°C° 0.5 mm 2 mps 663 mmHg 68%
    09:00 +19°C° 0.5 mm 3 mps 664 mmHg 64%
    10:00 +19°C° 0.2 mm 3 mps 663 mmHg 64%
    11:00 +19°C° 0.2 mm 3 mps 663 mmHg 63%
    12:00 +19°C° 0.2 mm 4 mps 663 mmHg 62%
    13:00 +19°C° 0.2 mm 3 mps 663 mmHg 61%
    14:00 +20°C° 0.2 mm 3 mps 663 mmHg 61%
    15:00 +20°C° 0.2 mm 2 mps 663 mmHg 60%
    16:00 +19°C° 0.7 mm 2 mps 663 mmHg 63%
    17:00 +19°C° 0.7 mm 2 mps 663 mmHg 66%
    18:00 +19°C° 0.7 mm 2 mps 663 mmHg 69%
    19:00 +17°C° 0.2 mm 2 mps 663 mmHg 71%
    20:00 +16°C° 0.2 mm 2 mps 663 mmHg 74%
    21:00 +15°C° 0.2 mm 1 mps 663 mmHg 77%
    22:00 +15°C° 0.1 mm 1 mps 662 mmHg 77%
    23:00 +14°C° 0.1 mm 1 mps 662 mmHg 77%

    7 Junio, Domingo

    Tiempo Temperatura Precipitaciones Viento Presión Humedad
    00:00 +14°C° 0.1 mm 1 mps 662 mmHg 77%
    01:00 +13°C° 0 mm 1 mps 662 mmHg 76%
    02:00 +13°C° 0 mm 1 mps 662 mmHg 76%
    03:00 +13°C° 0 mm 1 mps 662 mmHg 75%
    04:00 +14°C° 0 mm 1 mps 662 mmHg 73%
    05:00 +15°C° 0 mm 1 mps 663 mmHg 72%
    06:00 +16°C° 0 mm 1 mps 663 mmHg 70%
    07:00 +18°C° 0.1 mm 1 mps 663 mmHg 66%
    08:00 +19°C° 0.1 mm 1 mps 664 mmHg 62%
    09:00 +19°C° 0.1 mm 2 mps 664 mmHg 58%
    10:00 +20°C° 0.4 mm 2 mps 664 mmHg 57%
    11:00 +21°C° 0.4 mm 2 mps 664 mmHg 55%
    12:00 +23°C° 0.4 mm 2 mps 664 mmHg 54%
    13:00 +23°C° 0.4 mm 2 mps 663 mmHg 52%
    14:00 +23°C° 0.4 mm 2 mps 663 mmHg 50%
    15:00 +24°C° 0.4 mm 2 mps 663 mmHg 48%
    16:00 +23°C° 0.1 mm 2 mps 663 mmHg 51%
    17:00 +23°C° 0.1 mm 2 mps 662 mmHg 53%
    18:00 +21°C° 0.1 mm 2 mps 662 mmHg 55%
    19:00 +21°C° 0 mm 1 mps 662 mmHg 58%
    20:00 +19°C° 0 mm 1 mps 662 mmHg 60%
    21:00 +16°C° 0 mm 1 mps 662 mmHg 62%
    22:00 +16°C° 0 mm 2 mps 662 mmHg 64%
    23:00 +15°C° 0 mm 2 mps 661 mmHg 65%

    8 Junio, Lunes

    Tiempo Temperatura Precipitaciones Viento Presión Humedad
    00:00 +15°C° 0 mm 2 mps 661 mmHg 66%
    01:00 +15°C° 0 mm 2 mps 661 mmHg 66%
    02:00 +14°C° 0 mm 2 mps 661 mmHg 66%
    03:00 +14°C° 0 mm 2 mps 660 mmHg 67%
    04:00 +15°C° 0 mm 1 mps 661 mmHg 66%
    05:00 +16°C° 0 mm 1 mps 661 mmHg 65%
    06:00 +18°C° 0 mm 1 mps 661 mmHg 64%
    07:00 +19°C° 0 mm 1 mps 662 mmHg 59%
    08:00 +21°C° 0 mm 1 mps 662 mmHg 53%
    09:00 +23°C° 0 mm 1 mps 662 mmHg 47%
    10:00 +23°C° 0 mm 2 mps 662 mmHg 45%
    11:00 +24°C° 0 mm 2 mps 662 mmHg 43%
    12:00 +25°C° 0 mm 2 mps 662 mmHg 41%
    13:00 +25°C° 0 mm 2 mps 662 mmHg 41%
    14:00 +26°C° 0 mm 2 mps 661 mmHg 40%
    15:00 +26°C° 0 mm 3 mps 661 mmHg 40%
    16:00 +25°C° 0 mm 2 mps 661 mmHg 43%
    17:00 +24°C° 0 mm 2 mps 660 mmHg 46%
    18:00 +24°C° 0 mm 2 mps 660 mmHg 50%
    19:00 +22°C° 0 mm 1 mps 660 mmHg 52%
    20:00 +20°C° 0 mm 1 mps 660 mmHg 54%
    21:00 +18°C° 0 mm 1 mps 660 mmHg 56%
    22:00 +16°C° 0 mm 1 mps 660 mmHg 55%
    23:00 +16°C° 0 mm 2 mps 659 mmHg 53%

    9 Junio, Martes

    Tiempo Temperatura Precipitaciones Viento Presión Humedad
    00:00 +16°C° 0 mm 2 mps 659 mmHg 52%
    01:00 +15°C° 0 mm 2 mps 659 mmHg 51%
    02:00 +15°C° 0 mm 2 mps 659 mmHg 50%
    03:00 +15°C° 0 mm 2 mps 659 mmHg 49%
    04:00 +16°C° 0 mm 2 mps 659 mmHg 51%
    05:00 +16°C° 0 mm 1 mps 660 mmHg 52%
    06:00 +18°C° 0 mm 1 mps 660 mmHg 54%
    07:00 +20°C° 0 mm 1 mps 661 mmHg 48%
    08:00 +22°C° 0 mm 1 mps 661 mmHg 42%
    09:00 +23°C° 0 mm 2 mps 661 mmHg 36%
    10:00 +24°C° 0 mm 2 mps 661 mmHg 35%
    11:00 +25°C° 0 mm 2 mps 662 mmHg 35%
    12:00 +25°C° 0 mm 3 mps 662 mmHg 34%
    13:00 +25°C° 0 mm 2 mps 661 mmHg 36%
    14:00 +26°C° 0 mm 2 mps 661 mmHg 37%
    15:00 +26°C° 0 mm 2 mps 661 mmHg 38%
    16:00 +25°C° 0 mm 2 mps 660 mmHg 43%
    17:00 +24°C° 0 mm 2 mps 660 mmHg 48%
    18:00 +23°C° 0 mm 2 mps 660 mmHg 53%
    19:00 +20°C° 0 mm 2 mps 660 mmHg 57%
    20:00 +19°C° 0 mm 2 mps 660 mmHg 60%
    21:00 +18°C° 0 mm 1 mps 660 mmHg 63%
    22:00 +17°C° 0 mm 2 mps 660 mmHg 62%
    23:00 +16°C° 0 mm 2 mps 660 mmHg 62%
    Mostrar más